Regional Weather Roundup
Issued by NWS Kansas City/Pleasant Hill, MO

Home | Current Version | Previous Version | Graphics & Text | Print | Product List | Glossary Off
Versions: 1 2 3 4 5 6 7 8 9 10 11 12 13 14 15 16 17 18 19 20 21 22 23 24 25 26 27 28 29 30 31 32 33 34 35 36 37 38 39 40 41 42 43 44 45 46 47 48 49 50

000
ASUS43 KEAX 290404
RWREAX

WEATHER ROUNDUP FOR EASTERN KANSAS AND NORTHWEST MISSOURI
NATIONAL WEATHER SERVICE KANSAS CITY/PLEASANT HILL MO
1100 PM CDT THU AUG 28 2014

KSZ040-057-103>105-MOZ028-029-037-043-290500-
...KANSAS CITY METROPOLITAN AREA...

CITY           SKY/WX    TMP DP  RH WIND       PRES   REMARKS
K.C. INTL      PTCLDY    74  65  73 S9        29.89R
K.C. DOWNTOWN  PTCLDY    82  64  54 SW5       29.88R
LEES SUMMIT    CLEAR     79  65  62 S6        29.90R
OLATHE - IXD   CLEAR     77  64  64 S7        29.90R
OLATHE - OJC   CLEAR     76  64  66 SW3       29.89R
LAWRENCE       PTCLDY    77  66  68 CALM      29.88R

$$

MOZ001>008-011>017-020>025-030>033-038>040-044>046-053-054-290500-
...NORTHERN AND CENTRAL MISSOURI...

CITY           SKY/WX    TMP DP  RH WIND       PRES   REMARKS
ST. JOSEPH     MOCLDY    78  70  76 CALM      29.87R
MOSBY          CLEAR     73  70  88 CALM      29.88R
WHITEMAN AFB   CLEAR     76  67  74 S6        29.89S
CLINTON        CLEAR     77  66  69 S6        29.90S
SEDALIA        CLEAR     75  67  76 S7        29.91S
WARSAW         NOT AVBL
MARSHALL       CLEAR     79  70  73 SE6       29.90S
CHILLICOTHE      N/A     76  73  91 CALM      29.91R
MOBERLY        CLEAR     75  70  83 E3        29.94R
KIRKSVILLE     CLEAR     73  71  93 E9        29.95R

$$

MOZ041-047>049-056>058-063>065-088>090-097-290500-
...EASTERN AND SOUTHERN MISSOURI...

CITY           SKY/WX    TMP DP  RH WIND       PRES   REMARKS
ST. LOUIS INTL MOCLDY    79  71  76 SE7       29.99R
SPIRIT OF STL  MOCLDY    75  71  87 E5        29.96R
COLUMBIA       CLEAR     78  70  76 SE8       29.94R
JEFFERSON CITY CLEAR     77  70  79 SE7       29.93R
MEXICO         CLEAR     79  75  89 SE8       29.95R
ROLLA          CLEAR     76  68  76 SE8       29.96R
LEBANON        CLEAR     77  61  57 S6        29.97S
OSAGE BEACH    CLEAR     75  63  64 S5        29.94R
SPRINGFIELD    CLEAR     76  60  57 S9        29.95S
BRANSON        CLEAR     75  61  60 CALM      29.98S
NEVADA         CLEAR     72  63  73 S7        29.91S
JOPLIN         CLEAR     79  62  56 SE8       29.92S
WEST PLAINS    CLEAR     76  63  64 SE5       30.00S

$$

IAZ060-094-KSZ022-034>040-054-083-096-NEZ052-066-093-290500-
...KANSAS...SOUTHEAST NEBRASKA AND IOWA...

CITY           SKY/WX    TMP DP  RH WIND       PRES   REMARKS
TOPEKA         MOCLDY    81  66  60 SE6       29.87R
MANHATTAN      CLOUDY    74  69  85 CALM      29.85F
EMPORIA        CLOUDY    77  67  71 S8        29.88S
CHANUTE        PTCLDY    75  61  61 S6        29.90R
WICHITA        LGT RAIN  71  63  75 SE10      29.89F
OMAHA          MOCLDY    74  70  87 SE7       29.85R
LINCOLN        CLOUDY    73  68  84 SE6       29.85S
FALLS CITY     CLOUDY    75  73  93 E3        29.85F
LAMONI         CLEAR     75  73  93 SE8       29.91R
DES MOINES     TSTM      70  68  93 W15G28    29.94R VSB 3/4

$$




USA.gov is the U.S. government's official web portal to all federal, state and local government web resources and services.